| time (UTC) | temp F | wind direction | speed MPH | gust MPH | rain 1hr in | rain 24hr in | rain mn in | humidity % | barometer mb |
| 20260902090010 | 58 | 207 | 0.0 | 0.0 | 0.00 | 0.00 | 0.00 | 94 | 1010.6 |
| 20260902085509 | 58 | 207 | 0.0 | 0.0 | 0.00 | 0.00 | 0.00 | 94 | 1010.6 |
| 20260902085009 | 58 | 207 | 0.0 | 0.0 | 0.00 | 0.00 | 0.00 | 93 | 1010.6 |
| 20260902084522 | 58 | 207 | 0.0 | 0.0 | 0.00 | 0.00 | 0.00 | 93 | 1010.6 |
| 20260902084009 | 58 | 207 | 0.0 | 0.0 | 0.00 | 0.00 | 0.00 | 93 | 1010.8 |
| 20260902083508 | 58 | 207 | 0.0 | 0.0 | 0.00 | 0.00 | 0.00 | 93 | 1010.8 |
| 20260902083008 | 58 | 207 | 0.0 | 0.0 | 0.00 | 0.00 | 0.00 | 93 | 1010.7 |
| 20260902082509 | 58 | 207 | 0.0 | 0.0 | 0.00 | 0.00 | 0.00 | 93 | 1010.7 |
| 20260902081508 | 58 | 207 | 0.0 | 0.0 | 0.00 | 0.00 | 0.00 | 94 | 1010.9 |
| 20260902081008 | 58 | 207 | 0.0 | 2.0 | 0.00 | 0.00 | 0.00 | 93 | 1011.1 |
| 20260902080608 | 58 | 207 | 0.0 | 3.0 | 0.00 | 0.00 | 0.00 | 93 | 1011.1 |
| 20260902080012 | 58 | 207 | 1.0 | 3.0 | 0.00 | 0.00 | 0.00 | 93 | 1011.1 |
| 20260902075508 | 58 | 207 | 1.0 | 3.0 | 0.00 | 0.00 | 0.00 | 94 | 1011.2 |
| 20260902075008 | 58 | 207 | 0.0 | 4.0 | 0.00 | 0.00 | 0.00 | 93 | 1011.3 |
| 20260902074507 | 58 | 207 | 2.0 | 4.0 | 0.00 | 0.00 | 0.00 | 93 | 1011.2 |
| 20260902074010 | 58 | 219 | 0.0 | 3.0 | 0.00 | 0.00 | 0.00 | 93 | 1011.2 |
| 20260902073507 | 58 | 219 | 0.0 | 0.0 | 0.00 | 0.00 | 0.00 | 93 | 1011.2 |
| 20260902073007 | 58 | 219 | 0.0 | 0.0 | 0.00 | 0.00 | 0.00 | 93 | 1011.4 |
| 20260902072506 | 58 | 219 | 0.0 | 0.0 | 0.00 | 0.00 | 0.00 | 93 | 1011.4 |
| 20260902071510 | 58 | 23 | 0.0 | 1.0 | 0.00 | 0.00 | 0.00 | 91 | 1011.4 |
| 20260902071010 | 58 | 23 | 0.0 | 1.0 | 0.00 | 0.00 | 0.00 | 91 | 1011.4 |
| 20260902070510 | 58 | 23 | 0.0 | 1.0 | 0.00 | 0.00 | 0.00 | 91 | 1011.4 |
| 20260902070009 | 58 | 23 | 0.0 | 1.0 | 0.00 | 0.00 | 0.00 | 91 | 1011.5 |
| 20260902065509 | 58 | 23 | 0.0 | 1.0 | 0.00 | 0.00 | 0.00 | 92 | 1011.4 |
| 20260902065009 | 58 | 137 | 0.0 | 1.0 | 0.00 | 0.00 | 0.00 | 92 | 1011.4 |
| 20260902064509 | 58 | 137 | 0.0 | 1.0 | 0.00 | 0.00 | 0.00 | 91 | 1011.6 |
| 20260902064009 | 58 | 138 | 0.0 | 1.0 | 0.00 | 0.00 | 0.00 | 91 | 1011.6 |
| 20260902063510 | 58 | 137 | 0.0 | 1.0 | 0.00 | 0.00 | 0.00 | 91 | 1011.6 |
| 20260902063016 | 58 | 138 | 0.0 | 1.0 | 0.00 | 0.00 | 0.00 | 92 | 1011.6 |
| 20260902062509 | 58 | 219 | 0.0 | 1.0 | 0.00 | 0.00 | 0.00 | 93 | 1011.6 |
| 20260902061514 | 58 | 219 | 0.0 | 1.0 | 0.00 | 0.00 | 0.00 | 93 | 1011.6 |
| 20260902061006 | 58 | 219 | 0.0 | 1.0 | 0.00 | 0.00 | 0.00 | 93 | 1011.7 |
| 20260902060505 | 58 | 219 | 0.0 | 0.0 | 0.00 | 0.00 | 0.00 | 93 | 1011.7 |
| 20260902060014 | 58 | 219 | 0.0 | 1.0 | 0.00 | 0.00 | 0.00 | 93 | 1011.8 |
| 20260902055505 | 58 | 219 | 0.0 | 1.0 | 0.00 | 0.00 | 0.00 | 93 | 1011.7 |
| 20260902055005 | 58 | 219 | 0.0 | 2.0 | 0.00 | 0.00 | 0.00 | 93 | 1011.7 |
| 20260902054606 | 58 | 219 | 0.0 | 3.0 | 0.00 | 0.00 | 0.00 | 93 | 1011.7 |
| 20260902054004 | 58 | 220 | 1.0 | 3.0 | 0.00 | 0.00 | 0.00 | 93 | 1011.9 |
| 20260902053507 | 58 | 222 | 0.0 | 0.0 | 0.00 | 0.00 | 0.00 | 93 | 1011.9 |
| 20260902053006 | 58 | 222 | 0.0 | 0.0 | 0.00 | 0.00 | 0.00 | 93 | 1011.9 |
| 20260902052507 | 58 | 222 | 0.0 | 0.0 | 0.00 | 0.00 | 0.00 | 92 | 1011.8 |
| 20260902051504 | 58 | 222 | 0.0 | 0.0 | 0.00 | 0.00 | 0.00 | 92 | 1011.8 |
| 20260902051004 | 58 | 222 | 0.0 | 0.0 | 0.00 | 0.00 | 0.00 | 92 | 1011.9 |
| 20260902050504 | 59 | 222 | 0.0 | 0.0 | 0.00 | 0.00 | 0.00 | 92 | 1011.9 |
| 20260902050007 | 59 | 222 | 0.0 | 1.0 | 0.00 | 0.00 | 0.00 | 92 | 1012.0 |
| 20260902045507 | 59 | 222 | 0.0 | 3.0 | 0.00 | 0.00 | 0.00 | 92 | 1012.1 |
| 20260902045004 | 58 | 222 | 1.0 | 3.0 | 0.00 | 0.00 | 0.00 | 92 | 1012.1 |
| 20260902044504 | 59 | 223 | 0.0 | 4.0 | 0.00 | 0.00 | 0.00 | 92 | 1012.0 |
| 20260902044004 | 59 | 223 | 1.0 | 4.0 | 0.00 | 0.00 | 0.00 | 92 | 1012.0 |
| 20260902043504 | 59 | 225 | 0.0 | 4.0 | 0.00 | 0.00 | 0.00 | 91 | 1012.0 |
| 20260902043004 | 59 | 225 | 0.0 | 4.0 | 0.00 | 0.00 | 0.00 | 91 | 1012.0 |
| 20260902042503 | 59 | 229 | 0.0 | 4.0 | 0.00 | 0.00 | 0.00 | 91 | 1012.1 |
| 20260902041506 | 59 | 242 | 0.0 | 0.0 | 0.00 | 0.00 | 0.00 | 90 | 1011.9 |
| 20260902041004 | 59 | 242 | 0.0 | 2.0 | 0.00 | 0.00 | 0.00 | 90 | 1012.0 |
| 20260902040506 | 59 | 242 | 0.0 | 4.0 | 0.00 | 0.00 | 0.00 | 89 | 1012.0 |
| 20260902040004 | 59 | 242 | 1.0 | 4.0 | 0.00 | 0.00 | 0.00 | 88 | 1012.1 |
| 20260902035502 | 60 | 246 | 0.0 | 3.0 | 0.00 | 0.00 | 0.00 | 88 | 1012.1 |
| 20260902035003 | 60 | 246 | 0.0 | 7.0 | 0.00 | 0.00 | 0.00 | 87 | 1012.1 |
| 20260902034511 | 60 | 246 | 2.0 | 7.0 | 0.00 | 0.00 | 0.00 | 87 | 1012.1 |
| 20260902034002 | 60 | 242 | 2.0 | 8.0 | 0.00 | 0.00 | 0.00 | 86 | 1012.2 |
| 20260902033502 | 60 | 253 | 3.0 | 8.0 | 0.00 | 0.00 | 0.00 | 85 | 1012.0 |
| 20260902033004 | 60 | 236 | 2.0 | 12.0 | 0.00 | 0.00 | 0.00 | 85 | 1011.9 |
| 20260902032503 | 61 | 217 | 7.0 | 12.0 | 0.00 | 0.00 | 0.00 | 84 | 1012.0 |
| 20260902031501 | 61 | 202 | 5.0 | 12.0 | 0.00 | 0.00 | 0.00 | 84 | 1012.0 |
| 20260902031001 | 61 | 224 | 5.0 | 13.0 | 0.00 | 0.00 | 0.00 | 85 | 1011.9 |
| 20260902030503 | 61 | 242 | 2.0 | 8.0 | 0.00 | 0.00 | 0.00 | 85 | 1011.9 |
| 20260902030002 | 61 | 221 | 5.0 | 8.0 | 0.00 | 0.00 | 0.00 | 85 | 1011.8 |
| 20260902025531 | 61 | 207 | 3.0 | 6.0 | 0.00 | 0.00 | 0.00 | 87 | 1011.8 |
| 20260902025103 | 61 | 69 | 0.0 | 0.0 | 0.00 | 0.00 | 0.00 | 87 | 1011.5 |
| 20260902025001 | 61 | 69 | 0.0 | 0.0 | 0.00 | 0.00 | 0.00 | 87 | 1011.6 |
| 20260902024608 | 61 | 69 | 0.0 | 0.0 | 0.00 | 0.00 | 0.00 | 87 | 1011.5 |
| 20260902024501 | 61 | 69 | 0.0 | 0.0 | 0.00 | 0.00 | 0.00 | 86 | 1011.5 |
| 20260902024101 | 61 | 69 | 0.0 | 0.0 | 0.00 | 0.00 | 0.00 | 86 | 1011.5 |
| 20260902023601 | 61 | 69 | 0.0 | 0.0 | 0.00 | 0.00 | 0.00 | 86 | 1011.4 |
| 20260902023104 | 61 | 69 | 0.0 | 0.0 | 0.00 | 0.00 | 0.00 | 86 | 1011.4 |
| 20260902022600 | 61 | 69 | 0.0 | 0.0 | 0.00 | 0.00 | 0.00 | 86 | 1011.4 |
| 20260902022501 | 61 | 69 | 0.0 | 0.0 | 0.00 | 0.00 | 0.00 | 87 | 1011.4 |
| 20260902022201 | 61 | 157 | 0.0 | 0.0 | 0.00 | 0.00 | 0.00 | 85 | 1011.3 |
| 20260902021600 | 61 | 158 | 0.0 | 0.0 | 0.00 | 0.00 | 0.00 | 85 | 1011.4 |
| 20260902021100 | 61 | 157 | 0.0 | 0.0 | 0.00 | 0.00 | 0.00 | 85 | 1011.4 |
| 20260902020600 | 61 | 158 | 0.0 | 0.0 | 0.00 | 0.00 | 0.00 | 85 | 1011.4 |
| 20260902020104 | 61 | 157 | 0.0 | 0.0 | 0.00 | 0.00 | 0.00 | 85 | 1011.4 |
| 20260902015559 | 61 | 157 | 0.0 | 1.0 | 0.00 | 0.00 | 0.00 | 85 | 1011.4 |
| 20260902015059 | 61 | 160 | 0.0 | 1.0 | 0.00 | 0.00 | 0.00 | 84 | 1011.5 |
| 20260902014559 | 61 | 157 | 0.0 | 1.0 | 0.00 | 0.00 | 0.00 | 84 | 1011.5 |
| 20260902014101 | 61 | 59 | 0.0 | 1.0 | 0.00 | 0.00 | 0.00 | 85 | 1011.5 |
| 20260902013559 | 61 | 60 | 0.0 | 0.0 | 0.00 | 0.00 | 0.00 | 85 | 1011.4 |
| 20260902013059 | 61 | 59 | 0.0 | 1.0 | 0.00 | 0.00 | 0.00 | 85 | 1011.5 |
| 20260902012558 | 61 | 59 | 0.0 | 1.0 | 0.00 | 0.00 | 0.00 | 85 | 1011.5 |
| 20260902011557 | 62 | 69 | 0.0 | 1.0 | 0.00 | 0.00 | 0.00 | 85 | 1011.4 |
| 20260902011058 | 62 | 69 | 0.0 | 3.0 | 0.00 | 0.00 | 0.00 | 86 | 1011.4 |
| 20260902010558 | 62 | 69 | 0.0 | 4.0 | 0.00 | 0.00 | 0.00 | 85 | 1011.4 |
| 20260902010058 | 62 | 67 | 1.0 | 4.0 | 0.00 | 0.00 | 0.00 | 85 | 1011.4 |
| 20260902005658 | 62 | 64 | 1.0 | 5.0 | 0.00 | 0.00 | 0.00 | 85 | 1011.4 |
| 20260902005157 | 62 | 64 | 0.0 | 6.0 | 0.00 | 0.00 | 0.00 | 85 | 1011.4 |
| 20260902004557 | 62 | 62 | 1.0 | 5.0 | 0.00 | 0.00 | 0.00 | 85 | 1011.4 |
| 20260902004057 | 62 | 39 | 0.0 | 4.0 | 0.00 | 0.00 | 0.00 | 85 | 1011.4 |
| 20260902003556 | 62 | 44 | 0.0 | 5.0 | 0.00 | 0.00 | 0.00 | 85 | 1011.4 |
| 20260902003056 | 62 | 43 | 2.0 | 5.0 | 0.00 | 0.00 | 0.00 | 85 | 1011.4 |
| 20260902002556 | 62 | 349 | 0.0 | 4.0 | 0.00 | 0.00 | 0.00 | 84 | 1011.4 |
| 20260902002155 | 62 | 15 | 0.0 | 2.0 | 0.00 | 0.00 | 0.00 | 82 | 1011.4 |
| 20260902001601 | 62 | 15 | 0.0 | 2.0 | 0.00 | 0.00 | 0.00 | 82 | 1011.4 |
| 20260902001055 | 62 | 17 | 0.0 | 2.0 | 0.00 | 0.00 | 0.00 | 82 | 1011.4 |
| 20260902000555 | 62 | 360 | 1.0 | 2.0 | 0.00 | 0.00 | 0.00 | 82 | 1011.4 |
| 20260902000056 | 63 | 259 | 0.0 | 1.0 | 0.00 | 0.00 | 0.00 | 82 | 1011.4 |
| 20260901235558 | 63 | 257 | 0.0 | 0.0 | 0.00 | 0.00 | 0.00 | 81 | 1011.4 |
| 20260901235058 | 63 | 257 | 0.0 | 0.0 | 0.00 | 0.00 | 0.00 | 81 | 1011.4 |
| 20260901234610 | 63 | 257 | 0.0 | 0.0 | 0.00 | 0.00 | 0.00 | 81 | 1011.4 |
| 20260901234054 | 63 | 257 | 0.0 | 0.0 | 0.00 | 0.00 | 0.00 | 80 | 1011.3 |
| 20260901233557 | 64 | 257 | 0.0 | 1.0 | 0.00 | 0.00 | 0.00 | 79 | 1011.5 |
| 20260901233101 | 64 | 257 | 0.0 | 1.0 | 0.00 | 0.00 | 0.00 | 78 | 1011.4 |
| 20260901232554 | 64 | 203 | 0.0 | 0.0 | 0.00 | 0.00 | 0.00 | 76 | 1011.2 |
| 20260901232157 | 64 | 182 | 0.0 | 0.0 | 0.00 | 0.00 | 0.00 | 78 | 1011.3 |
| 20260901231554 | 64 | 182 | 0.0 | 0.0 | 0.00 | 0.00 | 0.00 | 79 | 1011.2 |
| 20260901231053 | 64 | 182 | 0.0 | 0.0 | 0.00 | 0.00 | 0.00 | 79 | 1011.2 |
| 20260901230555 | 63 | 182 | 0.0 | 2.0 | 0.00 | 0.00 | 0.00 | 81 | 1011.4 |
| 20260901230054 | 63 | 182 | 0.0 | 6.0 | 0.00 | 0.00 | 0.00 | 81 | 1011.3 |
| 20260901225553 | 63 | 182 | 2.0 | 8.0 | 0.00 | 0.00 | 0.00 | 80 | 1011.4 |
| 20260901225053 | 64 | 159 | 1.0 | 6.0 | 0.00 | 0.00 | 0.00 | 78 | 1011.4 |
| 20260901224555 | 64 | 156 | 0.0 | 3.0 | 0.00 | 0.00 | 0.00 | 77 | 1011.4 |
| 20260901224053 | 64 | 156 | 0.0 | 6.0 | 0.00 | 0.00 | 0.00 | 78 | 1011.3 |
| 20260901223556 | 64 | 156 | 3.0 | 6.0 | 0.00 | 0.00 | 0.00 | 78 | 1011.3 |
| 20260901223054 | 64 | 151 | 2.0 | 7.0 | 0.00 | 0.00 | 0.00 | 77 | 1011.2 |
| 20260901222552 | 64 | 151 | 2.0 | 7.0 | 0.00 | 0.00 | 0.00 | 77 | 1011.2 |
| 20260901222152 | 64 | 159 | 3.0 | 6.0 | 0.00 | 0.00 | 0.00 | 77 | 1011.2 |
| 20260901221552 | 64 | 157 | 1.0 | 7.0 | 0.00 | 0.00 | 0.00 | 77 | 1011.3 |
| 20260901221052 | 64 | 163 | 3.0 | 7.0 | 0.00 | 0.00 | 0.00 | 77 | 1011.2 |
| 20260901220552 | 64 | 174 | 2.0 | 6.0 | 0.00 | 0.00 | 0.00 | 76 | 1011.3 |
| 20260901220112 | 64 | 174 | 3.0 | 8.0 | 0.00 | 0.00 | 0.00 | 77 | 1011.3 |
| 20260901215551 | 64 | 171 | 4.0 | 8.0 | 0.00 | 0.00 | 0.00 | 78 | 1011.2 |
| 20260901215050 | 64 | 164 | 5.0 | 7.0 | 0.00 | 0.00 | 0.00 | 78 | 1011.2 |
| 20260901214549 | 64 | 163 | 4.0 | 8.0 | 0.00 | 0.00 | 0.00 | 78 | 1011.3 |
| 20260901214049 | 64 | 175 | 3.0 | 6.0 | 0.00 | 0.00 | 0.00 | 79 | 1011.2 |
| 20260901213552 | 64 | 175 | 3.0 | 7.0 | 0.00 | 0.00 | 0.00 | 79 | 1011.3 |
| 20260901213049 | 64 | 186 | 2.0 | 8.0 | 0.00 | 0.00 | 0.00 | 79 | 1011.4 |
| 20260901212548 | 64 | 182 | 4.0 | 8.0 | 0.00 | 0.00 | 0.00 | 79 | 1011.4 |
| 20260901212148 | 63 | 198 | 2.0 | 4.0 | 0.00 | 0.00 | 0.00 | 78 | 1011.4 |
| 20260901211549 | 63 | 214 | 1.0 | 4.0 | 0.00 | 0.00 | 0.00 | 79 | 1011.4 |
| 20260901211048 | 63 | 200 | 1.0 | 4.0 | 0.00 | 0.00 | 0.00 | 79 | 1011.4 |
| 20260901210548 | 63 | 223 | 0.0 | 4.0 | 0.00 | 0.00 | 0.00 | 79 | 1011.5 |
| 20260901210050 | 63 | 192 | 1.0 | 4.0 | 0.00 | 0.00 | 0.00 | 80 | 1011.4 |
| 20260901205548 | 63 | 165 | 0.0 | 5.0 | 0.00 | 0.00 | 0.00 | 80 | 1011.5 |
| 20260901205047 | 63 | 222 | 2.0 | 5.0 | 0.00 | 0.00 | 0.00 | 79 | 1011.5 |
| 20260901204548 | 63 | 164 | 1.0 | 5.0 | 0.00 | 0.00 | 0.00 | 79 | 1011.5 |
| 20260901204051 | 64 | 180 | 1.0 | 5.0 | 0.00 | 0.00 | 0.00 | 79 | 1011.5 |
| 20260901203549 | 64 | 164 | 1.0 | 5.0 | 0.00 | 0.00 | 0.00 | 79 | 1011.5 |
| 20260901203049 | 64 | 174 | 0.0 | 3.0 | 0.00 | 0.00 | 0.00 | 79 | 1011.7 |
| 20260901202550 | 64 | 213 | 0.0 | 3.0 | 0.00 | 0.00 | 0.00 | 79 | 1011.7 |
| 20260901201546 | 63 | 167 | 2.0 | 5.0 | 0.00 | 0.00 | 0.00 | 81 | 1011.6 |
| 20260901201046 | 63 | 167 | 1.0 | 5.0 | 0.00 | 0.00 | 0.00 | 81 | 1011.7 |
| 20260901200545 | 63 | 166 | 1.0 | 5.0 | 0.00 | 0.00 | 0.00 | 82 | 1011.6 |
| 20260901200049 | 63 | 166 | 3.0 | 5.0 | 0.00 | 0.00 | 0.00 | 82 | 1011.6 |
| 20260901195544 | 63 | 166 | 0.0 | 7.0 | 0.00 | 0.00 | 0.00 | 82 | 1011.5 |
| 20260901195045 | 63 | 166 | 4.0 | 7.0 | 0.00 | 0.00 | 0.00 | 82 | 1011.5 |
| 20260901194554 | 62 | 159 | 0.0 | 7.0 | 0.00 | 0.00 | 0.00 | 82 | 1011.6 |
| 20260901194047 | 62 | 162 | 1.0 | 7.0 | 0.00 | 0.00 | 0.00 | 82 | 1011.7 |
| 20260901193544 | 62 | 165 | 0.0 | 8.0 | 0.00 | 0.00 | 0.00 | 82 | 1011.7 |
| 20260901193056 | 63 | 165 | 1.0 | 8.0 | 0.00 | 0.00 | 0.00 | 82 | 1011.7 |
| 20260901192545 | 63 | 174 | 0.0 | 3.0 | 0.00 | 0.00 | 0.00 | 82 | 1011.8 |
| 20260901191645 | 62 | 174 | 3.0 | 6.0 | 0.00 | 0.00 | 0.00 | 82 | 1011.8 |
| 20260901191046 | 62 | 171 | 3.0 | 5.0 | 0.00 | 0.00 | 0.00 | 82 | 1011.8 |
| 20260901190543 | 62 | 171 | 4.0 | 7.0 | 0.00 | 0.00 | 0.00 | 83 | 1011.7 |
| 20260901190043 | 62 | 170 | 2.0 | 7.0 | 0.00 | 0.00 | 0.00 | 83 | 1011.9 |
| 20260901185543 | 62 | 151 | 4.0 | 8.0 | 0.00 | 0.00 | 0.00 | 82 | 1011.9 |
| 20260901185043 | 62 | 157 | 2.0 | 6.0 | 0.00 | 0.00 | 0.00 | 82 | 1011.9 |
| 20260901184544 | 62 | 156 | 0.0 | 5.0 | 0.00 | 0.00 | 0.00 | 82 | 1011.8 |
| 20260901184042 | 62 | 156 | 3.0 | 5.0 | 0.00 | 0.00 | 0.00 | 82 | 1011.8 |
| 20260901183540 | 62 | 156 | 1.0 | 7.0 | 0.00 | 0.00 | 0.00 | 84 | 1011.9 |
| 20260901183039 | 61 | 156 | 3.0 | 8.0 | 0.00 | 0.00 | 0.00 | 83 | 1011.9 |
| 20260901182539 | 61 | 150 | 3.0 | 8.0 | 0.00 | 0.00 | 0.00 | 84 | 1011.9 |
| 20260901181542 | 61 | 150 | 2.0 | 8.0 | 0.00 | 0.00 | 0.00 | 84 | 1012.0 |
| 20260901181038 | 61 | 157 | 4.0 | 7.0 | 0.00 | 0.00 | 0.00 | 84 | 1011.9 |
| 20260901180537 | 61 | 174 | 0.0 | 6.0 | 0.00 | 0.00 | 0.00 | 85 | 1011.9 |
| 20260901180037 | 61 | 207 | 2.0 | 6.0 | 0.00 | 0.00 | 0.00 | 86 | 1011.8 |
| 20260901175536 | 60 | 212 | 1.0 | 5.0 | 0.00 | 0.00 | 0.00 | 87 | 1011.8 |
| 20260901175034 | 60 | 217 | 0.0 | 4.0 | 0.00 | 0.00 | 0.00 | 87 | 1011.7 |
| 20260901174534 | 60 | 217 | 0.0 | 4.0 | 0.00 | 0.00 | 0.00 | 87 | 1011.7 |
| 20260901174034 | 60 | 217 | 0.0 | 4.0 | 0.00 | 0.00 | 0.00 | 87 | 1011.7 |
| 20260901173536 | 60 | 217 | 0.0 | 4.0 | 0.00 | 0.00 | 0.00 | 88 | 1011.5 |
| 20260901173036 | 59 | 219 | 1.0 | 6.0 | 0.00 | 0.00 | 0.00 | 89 | 1011.5 |
| 20260901172530 | 59 | 219 | 2.0 | 6.0 | 0.00 | 0.00 | 0.00 | 89 | 1011.5 |
| 20260901171530 | 59 | 246 | 0.0 | 0.0 | 0.00 | 0.00 | 0.00 | 90 | 1011.5 |
| 20260901171028 | 58 | 246 | 0.0 | 0.0 | 0.00 | 0.00 | 0.00 | 90 | 1011.6 |
| 20260901170528 | 58 | 246 | 0.0 | 0.0 | 0.00 | 0.00 | 0.00 | 90 | 1011.5 |
| 20260901170055 | 58 | 246 | 0.0 | 0.0 | 0.00 | 0.00 | 0.00 | 90 | 1011.5 |
| 20260901165526 | 58 | 246 | 0.0 | 0.0 | 0.00 | 0.00 | 0.00 | 90 | 1011.5 |
| 20260901165025 | 58 | 246 | 0.0 | 0.0 | 0.00 | 0.00 | 0.00 | 91 | 1011.6 |
| 20260901164525 | 58 | 246 | 0.0 | 0.0 | 0.00 | 0.00 | 0.00 | 91 | 1011.7 |
| 20260901164024 | 58 | 246 | 0.0 | 0.0 | 0.00 | 0.00 | 0.00 | 91 | 1011.8 |
| 20260901163524 | 58 | 246 | 0.0 | 0.0 | 0.00 | 0.00 | 0.00 | 92 | 1011.8 |
| 20260901163034 | 58 | 246 | 0.0 | 0.0 | 0.00 | 0.00 | 0.00 | 92 | 1011.8 |
| 20260901162525 | 57 | 246 | 0.0 | 0.0 | 0.00 | 0.00 | 0.00 | 92 | 1011.8 |
| 20260901161521 | 57 | 246 | 0.0 | 0.0 | 0.00 | 0.00 | 0.00 | 93 | 1011.9 |
| 20260901161022 | 57 | 246 | 0.0 | 0.0 | 0.00 | 0.00 | 0.00 | 93 | 1011.9 |
| 20260901160519 | 57 | 246 | 0.0 | 0.0 | 0.00 | 0.00 | 0.00 | 93 | 1011.9 |
| 20260901160020 | 57 | 246 | 0.0 | 1.0 | 0.00 | 0.00 | 0.00 | 93 | 1012.0 |
| 20260901155519 | 57 | 246 | 0.0 | 1.0 | 0.00 | 0.00 | 0.00 | 93 | 1012.0 |
| 20260901155021 | 57 | 246 | 0.0 | 2.0 | 0.00 | 0.00 | 0.00 | 93 | 1011.9 |
| 20260901154517 | 56 | 246 | 0.0 | 3.0 | 0.00 | 0.00 | 0.00 | 94 | 1012.1 |
| 20260901154018 | 56 | 246 | 1.0 | 3.0 | 0.00 | 0.00 | 0.00 | 94 | 1012.1 |
| 20260901153517 | 56 | 246 | 0.0 | 2.0 | 0.00 | 0.00 | 0.00 | 94 | 1012.1 |
| 20260901153017 | 56 | 246 | 0.0 | 3.0 | 0.00 | 0.00 | 0.00 | 94 | 1012.1 |
| 20260901152516 | 56 | 246 | 1.0 | 4.0 | 0.00 | 0.00 | 0.00 | 94 | 1012.2 |
| 20260901151517 | 56 | 247 | 1.0 | 5.0 | 0.00 | 0.00 | 0.00 | 94 | 1012.2 |
| 20260901151016 | 56 | 252 | 0.0 | 4.0 | 0.00 | 0.00 | 0.00 | 94 | 1012.0 |
| 20260901150515 | 56 | 260 | 1.0 | 3.0 | 0.00 | 0.00 | 0.00 | 94 | 1012.0 |
| 20260901150014 | 56 | 263 | 0.0 | 4.0 | 0.00 | 0.00 | 0.00 | 94 | 1012.0 |
| 20260901145513 | 56 | 263 | 1.0 | 4.0 | 0.00 | 0.00 | 0.00 | 95 | 1012.1 |
| 20260901145115 | 55 | 265 | 1.0 | 6.0 | 0.00 | 0.00 | 0.00 | 95 | 1012.0 |
| 20260901144511 | 55 | 271 | 0.0 | 0.0 | 0.00 | 0.00 | 0.00 | 95 | 1012.0 |
| 20260901144011 | 55 | 271 | 0.0 | 0.0 | 0.00 | 0.00 | 0.00 | 95 | 1011.8 |
| 20260901143510 | 54 | 271 | 0.0 | 0.0 | 0.00 | 0.00 | 0.00 | 95 | 1011.9 |
| 20260901143008 | 54 | 271 | 0.0 | 0.0 | 0.00 | 0.00 | 0.00 | 95 | 1011.8 |
| 20260901142508 | 54 | 271 | 0.0 | 0.0 | 0.00 | 0.00 | 0.00 | 96 | 1011.7 |
| 20260901141506 | 54 | 271 | 0.0 | 0.0 | 0.00 | 0.00 | 0.00 | 95 | 1011.5 |
| 20260901141007 | 53 | 271 | 0.0 | 0.0 | 0.00 | 0.00 | 0.00 | 95 | 1011.6 |
| 20260901140506 | 53 | 271 | 0.0 | 0.0 | 0.00 | 0.00 | 0.00 | 95 | 1011.5 |
| 20260901140008 | 53 | 271 | 0.0 | 1.0 | 0.00 | 0.00 | 0.00 | 95 | 1011.5 |
| 20260901135503 | 53 | 271 | 0.0 | 1.0 | 0.00 | 0.00 | 0.00 | 95 | 1011.5 |
| 20260901135002 | 53 | 271 | 0.0 | 1.0 | 0.00 | 0.00 | 0.00 | 95 | 1011.4 |
| 20260901134502 | 53 | 271 | 0.0 | 1.0 | 0.00 | 0.00 | 0.00 | 95 | 1011.4 |
| 20260901134101 | 53 | 271 | 0.0 | 1.0 | 0.00 | 0.00 | 0.00 | 95 | 1011.4 |
| 20260901133559 | 53 | 271 | 0.0 | 1.0 | 0.00 | 0.00 | 0.00 | 95 | 1011.3 |
| 20260901133109 | 53 | 271 | 0.0 | 1.0 | 0.00 | 0.00 | 0.00 | 94 | 1011.2 |
| 20260901132559 | 53 | 271 | 0.0 | 1.0 | 0.00 | 0.00 | 0.00 | 94 | 1011.1 |
| 20260901132100 | 53 | 271 | 0.0 | 1.0 | 0.00 | 0.00 | 0.00 | 94 | 1010.9 |
| 20260901131557 | 53 | 271 | 0.0 | 1.0 | 0.00 | 0.00 | 0.00 | 94 | 1010.9 |
| 20260901131059 | 54 | 271 | 0.0 | 2.0 | 0.00 | 0.00 | 0.00 | 94 | 1011.0 |
| 20260901130556 | 54 | 271 | 1.0 | 2.0 | 0.00 | 0.00 | 0.00 | 94 | 1011.0 |
| 20260901130056 | 54 | 271 | 0.0 | 1.0 | 0.00 | 0.00 | 0.00 | 94 | 1010.9 |
| 20260901125556 | 54 | 271 | 0.0 | 1.0 | 0.00 | 0.00 | 0.00 | 94 | 1011.0 |
| 20260901125055 | 54 | 271 | 0.0 | 0.0 | 0.00 | 0.00 | 0.00 | 94 | 1010.9 |
| 20260901124604 | 54 | 271 | 0.0 | 0.0 | 0.00 | 0.00 | 0.00 | 94 | 1010.9 |
| 20260901124053 | 54 | 271 | 0.0 | 0.0 | 0.00 | 0.00 | 0.00 | 94 | 1010.7 |
| 20260901123556 | 54 | 271 | 0.0 | 1.0 | 0.00 | 0.00 | 0.00 | 94 | 1010.8 |
| 20260901123053 | 55 | 271 | 0.0 | 1.0 | 0.00 | 0.00 | 0.00 | 94 | 1010.8 |
| 20260901122553 | 55 | 271 | 0.0 | 3.0 | 0.00 | 0.00 | 0.00 | 94 | 1010.8 |
| 20260901122152 | 55 | 271 | 1.0 | 3.0 | 0.00 | 0.00 | 0.00 | 95 | 1010.8 |
| 20260901121603 | 55 | 273 | 2.0 | 4.0 | 0.00 | 0.00 | 0.00 | 95 | 1010.7 |
| 20260901121052 | 55 | 275 | 2.0 | 4.0 | 0.00 | 0.00 | 0.00 | 95 | 1010.7 |
| 20260901120554 | 55 | 278 | 2.0 | 4.0 | 0.00 | 0.00 | 0.00 | 95 | 1010.7 |
| 20260901120053 | 55 | 282 | 2.0 | 4.0 | 0.00 | 0.00 | 0.00 | 95 | 1010.7 |
| 20260901115554 | 55 | 286 | 2.0 | 4.0 | 0.00 | 0.00 | 0.00 | 95 | 1010.6 |
| 20260901115051 | 54 | 286 | 2.0 | 4.0 | 0.00 | 0.00 | 0.00 | 95 | 1010.6 |
| 20260901114556 | 54 | 286 | 1.0 | 3.0 | 0.00 | 0.00 | 0.00 | 95 | 1010.7 |
| 20260901114049 | 54 | 286 | 1.0 | 2.0 | 0.00 | 0.00 | 0.00 | 94 | 1010.7 |
| 20260901113548 | 54 | 286 | 0.0 | 2.0 | 0.00 | 0.00 | 0.00 | 94 | 1010.7 |
| 20260901113056 | 55 | 286 | 0.0 | 0.0 | 0.00 | 0.00 | 0.00 | 94 | 1010.6 |
| 20260901112548 | 55 | 286 | 0.0 | 1.0 | 0.00 | 0.00 | 0.00 | 94 | 1010.5 |
| 20260901112047 | 55 | 286 | 1.0 | 2.0 | 0.00 | 0.00 | 0.00 | 94 | 1010.5 |
| 20260901111547 | 55 | 286 | 1.0 | 2.0 | 0.00 | 0.00 | 0.00 | 94 | 1010.5 |
| 20260901111046 | 55 | 286 | 1.0 | 2.0 | 0.00 | 0.00 | 0.00 | 94 | 1010.4 |
| 20260901110545 | 55 | 286 | 0.0 | 1.0 | 0.00 | 0.00 | 0.00 | 95 | 1010.3 |
| 20260901110046 | 55 | 286 | 0.0 | 1.0 | 0.00 | 0.00 | 0.00 | 94 | 1010.3 |
| 20260901105546 | 55 | 286 | 0.0 | 0.0 | 0.00 | 0.00 | 0.00 | 94 | 1010.4 |
| 20260901105046 | 55 | 286 | 0.0 | 0.0 | 0.00 | 0.00 | 0.00 | 94 | 1010.4 |
| 20260901104553 | 55 | 286 | 0.0 | 0.0 | 0.00 | 0.00 | 0.00 | 94 | 1010.4 |
| 20260901104045 | 55 | 286 | 0.0 | 0.0 | 0.00 | 0.00 | 0.00 | 94 | 1010.5 |
| 20260901103543 | 55 | 286 | 0.0 | 0.0 | 0.00 | 0.00 | 0.00 | 94 | 1010.3 |
| 20260901103043 | 55 | 286 | 0.0 | 0.0 | 0.00 | 0.00 | 0.00 | 94 | 1010.3 |
| 20260901102544 | 55 | 286 | 0.0 | 0.0 | 0.00 | 0.00 | 0.00 | 94 | 1010.4 |
| 20260901102145 | 55 | 286 | 0.0 | 1.0 | 0.00 | 0.00 | 0.00 | 93 | 1010.3 |
| 20260901101542 | 55 | 286 | 0.0 | 1.0 | 0.00 | 0.00 | 0.00 | 93 | 1010.3 |
| 20260901101042 | 55 | 286 | 0.0 | 1.0 | 0.00 | 0.00 | 0.00 | 93 | 1010.2 |
| 20260901100542 | 55 | 286 | 0.0 | 0.0 | 0.00 | 0.00 | 0.00 | 93 | 1010.2 |
| 20260901100049 | 55 | 286 | 0.0 | 0.0 | 0.00 | 0.00 | 0.00 | 93 | 1010.1 |
| 20260901095540 | 55 | 286 | 0.0 | 0.0 | 0.00 | 0.00 | 0.00 | 93 | 1010.1 |
| 20260901095040 | 56 | 286 | 0.0 | 0.0 | 0.00 | 0.00 | 0.00 | 93 | 1010.0 |
| 20260901094540 | 56 | 286 | 0.0 | 1.0 | 0.00 | 0.00 | 0.00 | 93 | 1010.0 |
| 20260901094042 | 56 | 286 | 0.0 | 2.0 | 0.00 | 0.00 | 0.00 | 93 | 1010.0 |
| 20260901093539 | 56 | 286 | 0.0 | 2.0 | 0.00 | 0.00 | 0.00 | 93 | 1010.0 |
| 20260901093039 | 56 | 286 | 0.0 | 2.0 | 0.00 | 0.00 | 0.00 | 93 | 1010.1 |
| 20260901092538 | 56 | 286 | 0.0 | 2.0 | 0.00 | 0.00 | 0.00 | 93 | 1010.1 |
| 20260901092139 | 56 | 286 | 0.0 | 2.0 | 0.00 | 0.00 | 0.00 | 93 | 1010.1 |
| 20260901091536 | 56 | 286 | 0.0 | 2.0 | 0.00 | 0.00 | 0.00 | 93 | 1010.1 |
| 20260901091036 | 56 | 286 | 0.0 | 2.0 | 0.00 | 0.00 | 0.00 | 93 | 1010.1 |
| 20260901090536 | 56 | 286 | 1.0 | 3.0 | 0.00 | 0.00 | 0.00 | 93 | 1010.1 |